Piloten Info

Wichtige Hinweise:

  • Neue Tower Frequenz 122,330 kHz - keine Landung ohne Funkkontakt
  • PPR Betrieb
  • Temporäre Hindernisse (Baukräne) nahe dem Flugplatz durch Bauarbeiten entlang der Nürnberger Straße (Östliche Seite).
  • Starts auf RWY 09 sind nicht gestattet. Start generell auf RWY 27. Bei Planung Rückenwinde berücksichtigen!
  • Bei Anflügen auf RWY 27 sind Hindernisse vorhanden, aus diesem Grund die versetzte Schwelle27!
  • Der Flugverein Neumarkt führt seine Starts generell auf RWY 27 und Landungen auf RWY09 durch.
  • Es besteht keine Tankmöglichkeit.

Diese Hinweis sind als Ergänzung / Hilfe zur regulären Flugplanung gedacht.

Auszüge aus AIP VFR ohne Gewähr - es gelten die offiziellen Veröffentlichungen.







METAR Informationen der nächstgelegenen Flughäfen


EDDN / Flughafen Nürnberg „Albrecht Dürer“

EDDN 210650Z 26003KT 230V300 3200 -DZRA BR SCT002 BKN004 04/03 Q1010 TEMPO 2500

ETIC / Fliegerhorst Grafenwöhr AAF

ETIC 210656Z AUTO 00000KT 6000 BR OVC004 05/05 A2980 RMK AO2 SLP106 T00510051 $

ETIH / Fliegerhorst Hohenfels AAF

ETIH 210656Z AUTO 00000KT 2200 BR OVC005 04/04 A2983 RMK AO2 RAB10E24 SLP118 P0000 T00440035 $